START_TIME,STEP,MOV.,AL01,t_acc.,AL02,t_acc.,E37,t_acc.,H21,t_acc.
1981-08-28 06:00:35.030 ,0,0,0.,24.0,0.,24.0,0.,24.0,0.,24.0
1981-08-28 06:00:59.030 ,1,1,0.,24.0,0.,24.0,0.,24.0,0.,24.0
1981-08-28 06:01:23.030 ,1,0,0.,24.0,0.,24.0,0.,24.0,0.,24.0
1981-08-28 06:01:47.030 ,2,1,0.,24.0,0.,24.0,0.,24.0,0.,24.0
1981-08-28 06:02:11.030 ,2,0,0.,24.0,0.,24.0,0.,24.0,0.,24.0
1981-08-28 06:02:35.030 ,3,1,0.,24.0,0.,24.0,0.,24.0,0.,24.0
1981-08-28 06:02:59.030 ,3,0,0.,24.0,0.,24.0,1.,24.0,0.,24.0
1981-08-28 06:03:23.030 ,4,1,1.,24.0,0.,24.0,1.,24.0,0.,24.0
1981-08-28 06:03:47.030 ,4,0,0.,24.0,0.,24.0,0.,24.0,0.,24.0
1981-08-28 06:04:11.030 ,5,1,0.,24.0,0.,24.0,0.,24.0,0.,24.0
1981-08-28 06:04:35.030 ,5,0,0.,24.0,0.,24.0,1.,24.0,0.,24.0
1981-08-28 06:04:59.030 ,6,1,0.,24.0,0.,24.0,2.,24.0,0.,24.0
1981-08-28 06:05:23.030 ,6,0,0.,24.0,0.,24.0,0.,24.0,0.,24.0
1981-08-28 06:05:47.030 ,7,1,10.,24.0,0.,24.0,0.,24.0,0.,24.0
1981-08-28 06:06:11.030 ,7,0,31.,24.0,0.,24.0,0.,24.0,0.,24.0
1981-08-28 06:06:35.030 ,7,1,18.,24.0,0.,24.0,0.,24.0,0.,24.0
1981-08-28 06:06:59.030 ,6,1,16.,24.0,0.,24.0,0.,24.0,0.,24.0
1981-08-28 06:07:23.030 ,5,1,0.,24.0,0.,24.0,1.,24.0,0.,24.0
1981-08-28 06:07:47.030 ,4,1,1.,24.0,0.,24.0,0.,24.0,0.,24.0
1981-08-28 06:08:11.030 ,3,1,0.,24.0,0.,24.0,0.,24.0,0.,24.0
1981-08-28 06:08:35.030 ,2,1,0.,24.0,0.,24.0,0.,24.0,0.,24.0
1981-08-28 06:08:59.030 ,1,1,0.,24.0,0.,24.0,1.,24.0,0.,24.0
1981-08-28 06:09:23.030 ,0,1,0.,24.0,0.,24.0,2.,24.0,0.,24.0
1981-08-28 06:09:47.030 ,0,0,0.,24.0,0.,24.0,1.,24.0,0.,24.0
1981-08-28 06:10:11.030 ,1,1,0.,24.0,0.,24.0,0.,24.0,0.,24.0
1981-08-28 06:10:35.030 ,2,1,0.,24.0,0.,24.0,0.,24.0,0.,24.0
1981-08-28 06:10:59.030 ,3,1,0.,24.0,1.,24.0,0.,24.0,0.,24.0
1981-08-28 06:11:23.030 ,4,1,0.,24.0,0.,24.0,0.,24.0,0.,24.0
1981-08-28 06:11:47.030 ,5,1,0.,24.0,0.,24.0,0.,24.0,0.,24.0
1981-08-28 06:12:11.030 ,6,1,0.,24.0,0.,24.0,0.,24.0,0.,24.0
1981-08-28 06:12:35.030 ,7,1,9.,24.0,0.,24.0,0.,24.0,0.,24.0
1981-08-28 06:12:59.030 ,7,1,29.,24.0,0.,24.0,0.,24.0,0.,24.0
1981-08-28 06:13:23.030 ,7,0,25.,24.0,0.,24.0,0.,24.0,0.,24.0
1981-08-28 06:13:47.030 ,6,1,24.,24.0,0.,24.0,1.,24.0,0.,24.0
1981-08-28 06:14:11.030 ,6,0,0.,24.0,0.,24.0,0.,24.0,0.,24.0
1981-08-28 06:14:35.030 ,5,1,0.,24.0,0.,24.0,0.,24.0,0.,24.0
1981-08-28 06:14:59.030 ,5,0,0.,24.0,0.,24.0,0.,24.0,0.,24.0
1981-08-28 06:15:23.030 ,4,1,0.,24.0,0.,24.0,0.,24.0,0.,24.0
1981-08-28 06:15:47.030 ,4,0,1.,24.0,0.,24.0,0.,24.0,0.,24.0
1981-08-28 06:16:11.030 ,3,1,0.,24.0,0.,24.0,0.,24.0,0.,24.0
1981-08-28 06:16:35.030 ,3,0,0.,24.0,0.,24.0,1.,24.0,0.,24.0
1981-08-28 06:16:59.030 ,2,1,1.,24.0,0.,24.0,0.,24.0,0.,24.0
1981-08-28 06:17:23.030 ,2,0,0.,24.0,0.,24.0,0.,24.0,0.,24.0
1981-08-28 06:17:47.030 ,1,1,0.,24.0,0.,24.0,0.,24.0,0.,24.0
1981-08-28 06:18:11.030 ,1,0,0.,24.0,0.,24.0,0.,24.0,0.,24.0
1981-08-28 06:18:35.030 ,0,1,0.,24.0,0.,24.0,0.,24.0,0.,24.0
1981-08-28 06:18:59.030 ,0,0,1.,24.0,0.,24.0,0.,24.0,0.,24.0
1981-08-28 06:19:23.030 ,0,1,0.,24.0,0.,24.0,0.,24.0,0.,24.0
1981-08-28 06:19:47.030 ,0,0,0.,24.0,0.,24.0,0.,24.0,0.,24.0
1981-08-28 06:20:11.030 ,1,1,0.,24.0,0.,24.0,0.,24.0,0.,24.0
1981-08-28 06:20:35.030 ,1,0,0.,24.0,0.,24.0,0.,24.0,0.,24.0
1981-08-28 06:20:59.030 ,2,1,0.,24.0,0.,24.0,0.,24.0,0.,24.0
1981-08-28 06:21:23.030 ,2,0,0.,24.0,0.,24.0,1.,24.0,0.,24.0
1981-08-28 06:21:47.030 ,3,1,0.,24.0,0.,24.0,0.,24.0,0.,24.0
1981-08-28 06:22:11.030 ,3,0,0.,24.0,0.,24.0,2.,24.0,0.,24.0
1981-08-28 06:22:35.030 ,4,1,0.,24.0,0.,24.0,0.,24.0,0.,24.0
1981-08-28 06:22:59.030 ,4,0,0.,24.0,0.,24.0,1.,24.0,0.,24.0
1981-08-28 06:23:23.030 ,5,1,0.,24.0,0.,24.0,2.,24.0,0.,24.0
1981-08-28 06:23:47.030 ,5,0,0.,24.0,0.,24.0,2.,24.0,0.,24.0
1981-08-28 06:24:11.030 ,6,1,0.,24.0,0.,24.0,0.,24.0,0.,24.0
1981-08-28 06:24:35.030 ,6,0,0.,24.0,0.,24.0,0.,24.0,0.,24.0
1981-08-28 06:24:59.030 ,7,1,4.,24.0,0.,24.0,0.,24.0,0.,24.0
1981-08-28 06:25:23.030 ,7,0,20.,24.0,0.,24.0,0.,24.0,0.,24.0
1981-08-28 06:25:47.030 ,7,1,31.,24.0,0.,24.0,1.,24.0,0.,24.0
1981-08-28 06:26:11.030 ,6,1,15.,24.0,0.,24.0,0.,24.0,0.,24.0
1981-08-28 06:26:35.030 ,5,1,0.,24.0,0.,24.0,1.,24.0,0.,24.0
1981-08-28 06:26:59.030 ,4,1,0.,24.0,0.,24.0,2.,24.0,0.,24.0
1981-08-28 06:27:23.030 ,3,1,0.,24.0,0.,24.0,0.,24.0,0.,24.0
1981-08-28 06:27:47.030 ,2,1,0.,24.0,0.,24.0,0.,24.0,0.,24.0
1981-08-28 06:28:11.030 ,1,1,0.,24.0,0.,24.0,2.,24.0,0.,24.0
1981-08-28 06:28:35.030 ,0,1,0.,24.0,0.,24.0,0.,24.0,0.,24.0
1981-08-28 06:28:59.030 ,0,1,0.,24.0,0.,24.0,0.,24.0,0.,24.0
1981-08-28 06:29:23.030 ,1,1,0.,24.0,0.,24.0,0.,24.0,0.,24.0
1981-08-28 06:29:47.030 ,2,1,0.,24.0,0.,24.0,0.,24.0,0.,24.0
1981-08-28 06:30:11.030 ,3,1,0.,24.0,0.,24.0,1.,24.0,0.,24.0
1981-08-28 06:30:35.030 ,4,1,0.,24.0,0.,24.0,2.,24.0,0.,24.0
1981-08-28 06:30:59.030 ,5,1,0.,24.0,0.,24.0,0.,24.0,0.,24.0
1981-08-28 06:30:35.030 ,4,1,0.,24.0,0.,24.0,2.,24.0,0.,24.0
1981-08-28 06:30:59.030 ,5,1,0.,24.0,0.,24.0,0.,24.0,0.,24.0
1981-08-28 06:31:23.030 ,6,1,0.,24.0,0.,24.0,0.,24.0,0.,24.0
1981-08-28 06:31:47.030 ,0,0,,0,,0,,0,,0
1981-08-28 06:32:17.630 ,0,0,41.,24.0,0.,24.0,2.,24.0,0.,24.0
1981-08-28 06:32:35.030 ,0,0,26.,24.0,0.,24.0,0.,24.0,0.,24.0
1981-08-28 06:32:59.030 ,6,1,17.,24.0,0.,24.0,1.,24.0,0.,24.0
1981-08-28 06:33:23.030 ,6,0,0.,24.0,0.,24.0,1.,24.0,0.,24.0
1981-08-28 06:33:47.030 ,5,1,0.,24.0,0.,24.0,0.,24.0,0.,24.0
1981-08-28 06:34:11.030 ,5,0,0.,24.0,1.,24.0,0.,24.0,0.,24.0
1981-08-28 06:34:35.030 ,4,1,0.,24.0,0.,24.0,0.,24.0,0.,24.0
1981-08-28 06:34:59.030 ,4,0,0.,24.0,0.,24.0,0.,24.0,0.,24.0
1981-08-28 06:35:23.030 ,3,1,0.,24.0,0.,24.0,0.,24.0,0.,24.0
1981-08-28 06:35:47.030 ,3,0,0.,24.0,0.,24.0,1.,24.0,0.,24.0
1981-08-28 06:36:11.030 ,2,1,0.,24.0,0.,24.0,0.,24.0,0.,24.0
1981-08-28 06:36:35.030 ,2,0,0.,24.0,0.,24.0,0.,24.0,0.,24.0
1981-08-28 06:36:59.030 ,1,1,0.,24.0,0.,24.0,0.,24.0,0.,24.0
1981-08-28 06:37:23.030 ,1,0,0.,24.0,0.,24.0,0.,24.0,0.,24.0
1981-08-28 06:37:47.030 ,0,1,0.,24.0,0.,24.0,2.,24.0,0.,24.0
1981-08-28 06:38:11.030 ,0,0,0.,24.0,0.,24.0,0.,24.0,0.,24.0
1981-08-28 06:38:35.030 ,0,0,0.,24.0,0.,24.0,1.,24.0,0.,24.0
1981-08-28 06:38:59.030 ,0,0,0.,24.0,0.,24.0,0.,24.0,0.,24.0
1981-08-28 06:39:23.030 ,1,1,0.,24.0,0.,24.0,0.,24.0,0.,24.0
1981-08-28 06:39:47.030 ,1,0,0.,24.0,0.,24.0,0.,24.0,0.,24.0
1981-08-28 06:40:11.030 ,2,1,1.,24.0,0.,24.0,0.,24.0,0.,24.0
1981-08-28 06:40:35.030 ,2,0,0.,24.0,0.,24.0,0.,24.0,0.,24.0
1981-08-28 06:40:59.030 ,3,1,0.,24.0,0.,24.0,0.,24.0,0.,24.0
1981-08-28 06:41:23.030 ,3,0,0.,24.0,0.,24.0,0.,24.0,0.,24.0
1981-08-28 06:41:47.030 ,4,1,0.,24.0,0.,24.0,0.,24.0,0.,24.0
1981-08-28 06:42:11.030 ,4,0,0.,24.0,0.,24.0,1.,24.0,0.,24.0
1981-08-28 06:42:35.030 ,5,1,0.,24.0,0.,24.0,2.,24.0,0.,24.0
1981-08-28 06:42:59.030 ,5,0,0.,24.0,0.,24.0,0.,24.0,0.,24.0
1981-08-28 06:43:23.030 ,6,1,0.,24.0,0.,24.0,0.,24.0,0.,24.0
1981-08-28 06:43:47.030 ,6,0,0.,24.0,0.,24.0,0.,24.0,0.,24.0
1981-08-28 06:44:11.030 ,7,1,6.,24.0,0.,24.0,0.,24.0,0.,24.0
1981-08-28 06:44:35.030 ,7,0,25.,24.0,0.,24.0,0.,24.0,0.,24.0
1981-08-28 06:44:59.030 ,7,1,24.,24.0,0.,24.0,0.,24.0,0.,24.0
1981-08-28 06:45:23.030 ,0,0,29.,24.0,0.,24.0,1.,24.0,0.,24.0
1981-08-28 06:46:01.430 ,0,0,,0,,0,,0,,0
1981-08-28 06:46:11.030 ,4,1,0.,24.0,0.,24.0,0.,24.0,0.,24.0
1981-08-28 06:46:35.030 ,3,1,0.,24.0,0.,24.0,1.,24.0,0.,24.0
1981-08-28 06:46:59.030 ,2,1,0.,24.0,0.,24.0,1.,24.0,0.,24.0
1981-08-28 06:47:23.030 ,1,1,0.,24.0,0.,24.0,0.,24.0,0.,24.0
1981-08-28 06:47:47.030 ,0,1,0.,24.0,0.,24.0,0.,24.0,0.,24.0
1981-08-28 06:48:11.030 ,0,1,0.,24.0,0.,24.0,0.,24.0,0.,24.0
1981-08-28 06:48:35.030 ,1,1,0.,24.0,0.,24.0,0.,24.0,0.,24.0
1981-08-28 06:48:59.030 ,2,1,0.,24.0,0.,24.0,0.,24.0,0.,24.0
1981-08-28 06:49:23.030 ,3,1,0.,24.0,0.,24.0,0.,24.0,0.,24.0
1981-08-28 06:49:47.030 ,4,1,0.,24.0,0.,24.0,1.,24.0,0.,24.0
1981-08-28 06:50:11.030 ,5,1,0.,24.0,1.,24.0,0.,24.0,0.,24.0
1981-08-28 06:50:35.030 ,6,1,0.,24.0,0.,24.0,1.,24.0,0.,24.0
1981-08-28 06:50:59.030 ,7,1,12.,24.0,0.,24.0,0.,24.0,0.,24.0
1981-08-28 06:51:23.030 ,7,1,27.,24.0,0.,24.0,0.,24.0,0.,24.0
1981-08-28 06:51:47.030 ,7,0,33.,24.0,0.,24.0,0.,24.0,0.,24.0
1981-08-28 06:52:11.030 ,6,1,28.,24.0,0.,24.0,0.,24.0,0.,24.0
1981-08-28 06:52:35.030 ,6,0,0.,24.0,0.,24.0,1.,24.0,0.,24.0
1981-08-28 06:52:59.030 ,5,1,0.,24.0,0.,24.0,2.,24.0,0.,24.0
1981-08-28 06:53:23.030 ,5,0,0.,24.0,0.,24.0,0.,24.0,0.,24.0
1981-08-28 06:53:47.030 ,4,1,0.,24.0,0.,24.0,0.,24.0,0.,24.0
1981-08-28 06:54:11.030 ,4,0,0.,24.0,0.,24.0,1.,24.0,0.,24.0
1981-08-28 06:54:35.030 ,3,1,0.,24.0,0.,24.0,0.,24.0,0.,24.0
1981-08-28 06:54:59.030 ,3,0,0.,24.0,0.,24.0,0.,24.0,0.,24.0
1981-08-28 06:55:23.030 ,2,1,0.,24.0,0.,24.0,0.,24.0,0.,24.0
1981-08-28 06:55:47.030 ,2,0,0.,24.0,0.,24.0,0.,24.0,0.,24.0
1981-08-28 06:56:11.030 ,1,1,0.,24.0,0.,24.0,1.,24.0,0.,24.0
1981-08-28 06:56:35.030 ,1,0,1.,24.0,0.,24.0,0.,24.0,0.,24.0
1981-08-28 06:56:59.030 ,0,1,0.,24.0,0.,24.0,0.,24.0,0.,24.0
1981-08-28 06:57:23.030 ,0,0,0.,24.0,0.,24.0,0.,24.0,0.,24.0
1981-08-28 06:57:47.030 ,0,1,0.,24.0,1.,24.0,0.,24.0,0.,24.0
1981-08-28 06:58:11.030 ,0,0,0.,24.0,0.,24.0,0.,24.0,0.,24.0
1981-08-28 06:58:35.030 ,1,1,0.,24.0,0.,24.0,0.,24.0,0.,24.0
1981-08-28 06:58:59.030 ,1,0,0.,24.0,0.,24.0,2.,24.0,0.,24.0
1981-08-28 06:59:23.030 ,2,1,0.,24.0,0.,24.0,0.,24.0,0.,24.0
1981-08-28 06:59:47.030 ,2,0,0.,24.0,0.,24.0,0.,24.0,0.,24.0
1981-08-28 07:00:11.030 ,3,1,1.,24.0,0.,24.0,0.,24.0,0.,24.0
1981-08-28 07:00:35.030 ,3,0,0.,24.0,0.,24.0,0.,24.0,0.,24.0
1981-08-28 07:00:59.030 ,4,1,0.,24.0,0.,24.0,0.,24.0,0.,24.0
1981-08-28 07:01:23.030 ,4,0,0.,24.0,0.,24.0,1.,24.0,0.,24.0
1981-08-28 07:01:47.030 ,5,1,0.,24.0,0.,24.0,1.,24.0,0.,24.0
1981-08-28 07:02:11.030 ,5,0,0.,24.0,0.,24.0,3.,24.0,0.,24.0
1981-08-28 07:02:35.030 ,6,1,0.,24.0,0.,24.0,0.,24.0,0.,24.0
1981-08-28 07:02:59.030 ,6,0,1.,24.0,0.,24.0,0.,24.0,0.,24.0
1981-08-28 07:03:23.030 ,7,1,4.,24.0,0.,24.0,0.,24.0,0.,24.0
1981-08-28 07:03:47.030 ,7,0,35.,24.0,0.,24.0,0.,24.0,0.,24.0
1981-08-28 07:04:11.030 ,7,1,24.,24.0,0.,24.0,0.,24.0,0.,24.0
1981-08-28 07:04:35.030 ,6,1,30.,24.0,0.,24.0,1.,24.0,0.,24.0
1981-08-28 07:04:59.030 ,5,1,0.,24.0,0.,24.0,0.,24.0,0.,24.0
1981-08-28 07:05:23.030 ,4,1,0.,24.0,0.,24.0,0.,24.0,0.,24.0
1981-08-28 07:05:47.030 ,3,1,0.,24.0,0.,24.0,0.,24.0,0.,24.0
1981-08-28 07:06:11.030 ,2,1,0.,24.0,0.,24.0,0.,24.0,0.,24.0
1981-08-28 07:06:35.030 ,1,1,0.,24.0,0.,24.0,2.,24.0,0.,24.0
1981-08-28 07:06:59.030 ,0,1,0.,24.0,0.,24.0,0.,24.0,0.,24.0
1981-08-28 07:07:23.030 ,0,1,0.,24.0,0.,24.0,0.,24.0,0.,24.0
1981-08-28 07:07:47.030 ,1,1,0.,24.0,0.,24.0,0.,24.0,0.,24.0
1981-08-28 07:08:11.030 ,2,1,0.,24.0,0.,24.0,0.,24.0,0.,24.0
1981-08-28 07:08:35.030 ,3,1,0.,24.0,0.,24.0,0.,24.0,0.,24.0
1981-08-28 07:08:59.030 ,4,1,0.,24.0,0.,24.0,0.,24.0,0.,24.0
1981-08-28 07:09:23.030 ,5,1,0.,24.0,0.,24.0,0.,24.0,0.,24.0
1981-08-28 07:09:47.030 ,6,1,0.,24.0,0.,24.0,0.,24.0,0.,24.0
1981-08-28 07:10:11.030 ,7,1,11.,24.0,1.,24.0,0.,24.0,0.,24.0
1981-08-28 07:10:35.030 ,7,1,27.,24.0,0.,24.0,0.,24.0,0.,24.0
1981-08-28 07:10:59.030 ,7,0,34.,24.0,0.,24.0,0.,24.0,0.,24.0
1981-08-28 07:11:23.030 ,6,1,28.,24.0,0.,24.0,1.,24.0,0.,24.0
1981-08-28 07:11:47.030 ,6,0,0.,24.0,0.,24.0,0.,24.0,0.,24.0
1981-08-28 07:12:11.030 ,5,1,0.,24.0,0.,24.0,1.,24.0,0.,24.0
1981-08-28 07:12:35.030 ,5,0,0.,24.0,0.,24.0,0.,24.0,0.,24.0
1981-08-28 07:12:59.030 ,4,1,0.,24.0,0.,24.0,0.,24.0,0.,24.0
1981-08-28 07:13:23.030 ,4,0,0.,24.0,0.,24.0,0.,24.0,0.,24.0
1981-08-28 07:13:47.030 ,3,1,1.,24.0,0.,24.0,0.,24.0,0.,24.0
1981-08-28 07:14:11.030 ,3,0,0.,24.0,0.,24.0,0.,24.0,0.,24.0
1981-08-28 07:14:35.030 ,2,1,0.,24.0,1.,24.0,0.,24.0,0.,24.0
1981-08-28 07:14:59.030 ,2,0,0.,24.0,1.,24.0,0.,24.0,0.,24.0
1981-08-28 07:15:23.030 ,1,1,0.,24.0,0.,24.0,1.,24.0,0.,24.0
1981-08-28 07:15:47.030 ,1,0,0.,24.0,0.,24.0,0.,24.0,0.,24.0
1981-08-28 07:16:11.030 ,0,1,0.,24.0,0.,24.0,0.,24.0,0.,24.0
1981-08-28 07:16:35.030 ,0,0,0.,24.0,0.,24.0,2.,24.0,0.,24.0
1981-08-28 07:16:59.020 ,0,1,0.,24.0,0.,24.0,1.,24.0,0.,24.0
1981-08-28 07:17:23.030 ,0,0,0.,24.0,0.,24.0,0.,24.0,0.,24.0
1981-08-28 07:17:47.030 ,1,1,0.,24.0,0.,24.0,0.,24.0,0.,24.0
1981-08-28 07:18:11.030 ,1,0,0.,24.0,0.,24.0,1.,24.0,0.,24.0
1981-08-28 07:18:35.030 ,2,1,0.,24.0,0.,24.0,0.,24.0,0.,24.0
1981-08-28 07:18:59.030 ,2,0,0.,24.0,0.,24.0,0.,24.0,0.,24.0
1981-08-28 07:19:23.030 ,3,1,0.,24.0,0.,24.0,0.,24.0,0.,24.0
1981-08-28 07:19:47.030 ,3,0,0.,24.0,0.,24.0,0.,24.0,0.,24.0
1981-08-28 07:20:11.030 ,4,1,0.,24.0,0.,24.0,0.,24.0,0.,24.0
1981-08-28 07:20:35.030 ,4,0,0.,24.0,0.,24.0,0.,24.0,0.,24.0
1981-08-28 07:20:59.030 ,5,1,1.,24.0,0.,24.0,0.,24.0,0.,24.0
1981-08-28 07:21:23.030 ,5,0,0.,24.0,0.,24.0,0.,24.0,0.,24.0
1981-08-28 07:21:47.030 ,6,1,0.,24.0,0.,24.0,0.,24.0,0.,24.0
1981-08-28 07:22:11.030 ,6,0,0.,24.0,0.,24.0,0.,24.0,0.,24.0
1981-08-28 07:22:35.030 ,7,1,7.,24.0,0.,24.0,1.,24.0,0.,24.0
1981-08-28 07:22:59.030 ,7,0,34.,24.0,0.,24.0,1.,24.0,0.,24.0
1981-08-28 07:23:23.030 ,7,1,29.,24.0,0.,24.0,1.,24.0,0.,24.0
1981-08-28 07:23:47.030 ,6,1,25.,24.0,0.,24.0,0.,24.0,0.,24.0
1981-08-28 07:24:11.030 ,5,1,0.,24.0,0.,24.0,1.,24.0,0.,24.0
1981-08-28 07:24:35.030 ,4,1,0.,24.0,0.,24.0,0.,24.0,0.,24.0
1981-08-28 07:24:59.030 ,3,1,0.,24.0,0.,24.0,1.,24.0,0.,24.0
1981-08-28 07:25:23.030 ,2,1,0.,24.0,0.,24.0,0.,24.0,0.,24.0
1981-08-28 07:25:47.030 ,1,1,0.,24.0,0.,24.0,0.,24.0,0.,24.0
1981-08-28 07:26:11.030 ,0,1,0.,24.0,0.,24.0,0.,24.0,0.,24.0
1981-08-28 07:26:35.030 ,0,1,0.,24.0,0.,24.0,0.,24.0,0.,24.0
1981-08-28 07:26:59.030 ,1,1,0.,24.0,0.,24.0,0.,24.0,0.,24.0
1981-08-28 07:27:23.030 ,2,1,0.,24.0,0.,24.0,0.,24.0,0.,24.0
1981-08-28 07:27:47.030 ,3,1,0.,24.0,0.,24.0,1.,24.0,0.,24.0
1981-08-28 07:28:11.030 ,4,1,0.,24.0,0.,24.0,0.,24.0,0.,24.0
1981-08-28 07:28:35.030 ,5,1,0.,24.0,0.,24.0,0.,24.0,0.,24.0
1981-08-28 07:28:59.030 ,6,1,0.,24.0,0.,24.0,0.,24.0,0.,24.0
1981-08-28 07:29:23.030 ,7,1,6.,24.0,0.,24.0,0.,24.0,0.,24.0
1981-08-28 07:29:47.030 ,7,1,26.,24.0,0.,24.0,0.,24.0,0.,24.0
1981-08-28 07:30:11.030 ,7,0,26.,24.0,0.,24.0,3.,24.0,0.,24.0
1981-08-28 07:30:35.030 ,6,1,18.,24.0,0.,24.0,0.,24.0,0.,24.0
1981-08-28 07:30:59.030 ,6,0,0.,24.0,0.,24.0,0.,24.0,0.,24.0
1981-08-28 07:31:23.030 ,5,1,0.,24.0,0.,24.0,0.,24.0,0.,24.0
1981-08-28 07:31:47.030 ,5,0,0.,24.0,0.,24.0,0.,24.0,0.,24.0
1981-08-28 07:32:11.030 ,4,1,0.,24.0,0.,24.0,1.,24.0,0.,24.0
1981-08-28 07:32:35.030 ,4,0,0.,24.0,0.,24.0,1.,24.0,0.,24.0
1981-08-28 07:32:59.030 ,3,1,0.,24.0,0.,24.0,0.,24.0,0.,24.0
1981-08-28 07:33:23.030 ,3,0,0.,24.0,0.,24.0,0.,24.0,0.,24.0
1981-08-28 07:33:47.020 ,2,1,0.,24.0,0.,24.0,0.,24.0,0.,24.0
1981-08-28 07:34:11.020 ,2,0,0.,24.0,0.,24.0,0.,24.0,0.,24.0
1981-08-28 07:34:35.020 ,1,1,0.,24.0,0.,24.0,0.,24.0,0.,24.0
1981-08-28 07:34:59.020 ,1,0,0.,24.0,0.,24.0,1.,24.0,0.,24.0
1981-08-28 07:35:23.020 ,0,1,0.,24.0,0.,24.0,1.,24.0,0.,24.0
1981-08-28 07:35:47.020 ,0,0,0.,24.0,0.,24.0,0.,24.0,0.,24.0
1981-08-28 07:36:11.020 ,0,1,0.,24.0,0.,24.0,1.,24.0,0.,24.0
1981-08-28 07:36:35.020 ,0,0,0.,24.0,0.,24.0,0.,24.0,0.,24.0
1981-08-28 07:36:59.020 ,1,1,1.,24.0,0.,24.0,0.,24.0,0.,24.0
1981-08-28 07:37:23.020 ,1,0,0.,24.0,0.,24.0,0.,24.0,0.,24.0
1981-08-28 07:37:47.020 ,2,1,0.,24.0,0.,24.0,1.,24.0,0.,24.0
1981-08-28 07:38:11.020 ,2,0,0.,24.0,0.,24.0,0.,24.0,0.,24.0
1981-08-28 07:38:35.020 ,3,1,0.,24.0,0.,24.0,1.,24.0,0.,24.0
1981-08-28 07:38:59.020 ,3,0,0.,24.0,0.,24.0,0.,24.0,0.,24.0
1981-08-28 07:39:23.020 ,4,1,0.,24.0,0.,24.0,1.,24.0,0.,24.0
1981-08-28 07:39:47.020 ,4,0,0.,24.0,0.,24.0,0.,24.0,0.,24.0
1981-08-28 07:40:11.020 ,5,1,0.,24.0,0.,24.0,0.,24.0,0.,24.0
1981-08-28 07:40:35.020 ,5,0,0.,24.0,0.,24.0,0.,24.0,0.,24.0
1981-08-28 07:40:59.020 ,6,1,0.,24.0,0.,24.0,0.,24.0,0.,24.0
1981-08-28 07:41:23.020 ,6,0,0.,24.0,0.,24.0,0.,24.0,0.,24.0
1981-08-28 07:41:47.020 ,7,1,8.,24.0,0.,24.0,1.,24.0,0.,24.0
1981-08-28 07:42:11.020 ,7,0,23.,24.0,0.,24.0,0.,24.0,0.,24.0
1981-08-28 07:42:35.020 ,7,1,36.,24.0,0.,24.0,0.,24.0,0.,24.0
1981-08-28 07:42:59.020 ,6,1,20.,24.0,0.,24.0,0.,24.0,0.,24.0
1981-08-28 07:43:23.020 ,5,1,0.,24.0,0.,24.0,0.,24.0,0.,24.0
1981-08-28 07:43:47.020 ,4,1,0.,24.0,1.,24.0,0.,24.0,0.,24.0
1981-08-28 07:44:11.020 ,3,1,0.,24.0,0.,24.0,0.,24.0,0.,24.0
1981-08-28 07:44:35.020 ,2,1,0.,24.0,0.,24.0,1.,24.0,0.,24.0
1981-08-28 07:44:59.020 ,1,1,0.,24.0,0.,24.0,0.,24.0,0.,24.0
1981-08-28 07:45:23.020 ,0,1,0.,24.0,0.,24.0,0.,24.0,0.,24.0
1981-08-28 07:45:47.020 ,0,1,0.,24.0,0.,24.0,0.,24.0,0.,24.0
1981-08-28 07:46:11.020 ,1,1,0.,24.0,0.,24.0,0.,24.0,0.,24.0
1981-08-28 07:46:35.020 ,2,1,0.,24.0,0.,24.0,0.,24.0,0.,24.0
1981-08-28 07:46:59.020 ,3,1,0.,24.0,0.,24.0,1.,24.0,0.,24.0
1981-08-28 07:47:23.020 ,4,1,0.,24.0,0.,24.0,0.,24.0,0.,24.0
1981-08-28 07:47:47.020 ,5,1,0.,24.0,1.,24.0,0.,24.0,0.,24.0
1981-08-28 07:48:11.020 ,6,1,0.,24.0,0.,24.0,3.,24.0,0.,24.0
1981-08-28 07:48:35.020 ,7,1,8.,24.0,0.,24.0,0.,24.0,0.,24.0
1981-08-28 07:48:59.020 ,7,1,27.,24.0,0.,24.0,0.,24.0,0.,24.0
1981-08-28 07:49:23.020 ,7,0,36.,24.0,0.,24.0,0.,24.0,0.,24.0
1981-08-28 07:49:47.020 ,6,1,25.,24.0,0.,24.0,0.,24.0,0.,24.0
1981-08-28 07:50:11.020 ,6,0,0.,24.0,0.,24.0,1.,24.0,0.,24.0
1981-08-28 07:50:35.020 ,5,1,0.,24.0,0.,24.0,0.,24.0,0.,24.0
1981-08-28 07:50:59.020 ,5,0,0.,24.0,0.,24.0,0.,24.0,0.,24.0
1981-08-28 07:51:23.020 ,4,1,0.,24.0,1.,24.0,0.,24.0,0.,24.0
1981-08-28 07:51:47.020 ,4,0,0.,24.0,0.,24.0,1.,24.0,0.,24.0
1981-08-28 07:52:11.020 ,3,1,0.,24.0,0.,24.0,0.,24.0,0.,24.0
1981-08-28 07:52:35.020 ,3,0,0.,24.0,0.,24.0,0.,24.0,0.,24.0
1981-08-28 07:52:59.020 ,2,1,0.,24.0,0.,24.0,0.,24.0,0.,24.0
1981-08-28 07:53:23.020 ,2,0,0.,24.0,0.,24.0,0.,24.0,0.,24.0
1981-08-28 07:53:47.020 ,1,1,1.,24.0,0.,24.0,0.,24.0,0.,24.0
1981-08-28 07:54:11.020 ,1,0,0.,24.0,0.,24.0,0.,24.0,0.,24.0
1981-08-28 07:54:35.020 ,0,1,0.,24.0,0.,24.0,0.,24.0,0.,24.0
1981-08-28 07:54:59.020 ,0,0,0.,24.0,0.,24.0,0.,24.0,0.,24.0
1981-08-28 07:55:23.020 ,0,1,0.,24.0,0.,24.0,0.,24.0,0.,24.0
1981-08-28 07:55:47.020 ,0,0,0.,24.0,0.,24.0,0.,24.0,0.,24.0
1981-08-28 07:56:11.020 ,1,1,0.,24.0,0.,24.0,0.,24.0,0.,24.0
1981-08-28 07:56:35.020 ,1,0,0.,24.0,0.,24.0,0.,24.0,0.,24.0
1981-08-28 07:56:59.020 ,2,1,0.,24.0,0.,24.0,0.,24.0,0.,24.0
1981-08-28 07:57:23.020 ,0,0,57.,24.0,1048576.,24.0,1048576.,24.0,0.,24.0
1981-08-28 07:57:23.020 ,0,0,0.,24.0,0.,24.0,0.,24.0,0.,24.0
1981-08-28 07:57:47.020 ,3,1,0.,24.0,0.,24.0,0.,24.0,0.,24.0
1981-08-28 07:58:11.020 ,3,0,0.,24.0,0.,24.0,0.,24.0,0.,24.0
1981-08-28 07:58:35.020 ,4,1,0.,24.0,0.,24.0,0.,24.0,0.,24.0
1981-08-28 07:58:59.020 ,4,0,0.,24.0,0.,24.0,1.,24.0,0.,24.0
1981-08-28 07:59:23.020 ,5,1,1.,24.0,0.,24.0,1.,24.0,0.,24.0
1981-08-28 07:59:47.020 ,5,0,0.,24.0,0.,24.0,0.,24.0,0.,24.0
1981-08-28 08:00:11.020 ,6,1,0.,24.0,0.,24.0,0.,24.0,0.,24.0
1981-08-28 08:00:35.020 ,6,0,0.,24.0,0.,24.0,0.,24.0,0.,24.0
1981-08-28 08:00:59.020 ,7,1,8.,24.0,0.,24.0,0.,24.0,0.,24.0
1981-08-28 08:01:23.020 ,7,0,32.,24.0,0.,24.0,0.,24.0,0.,24.0
1981-08-28 08:01:47.020 ,7,1,29.,24.0,0.,24.0,0.,24.0,0.,24.0
1981-08-28 08:02:11.020 ,6,1,29.,24.0,0.,24.0,2.,24.0,0.,24.0
1981-08-28 08:02:35.020 ,5,1,0.,24.0,0.,24.0,1.,24.0,0.,24.0
1981-08-28 08:02:59.020 ,4,1,0.,24.0,0.,24.0,0.,24.0,0.,24.0
1981-08-28 08:03:23.020 ,3,1,0.,24.0,0.,24.0,0.,24.0,0.,24.0
1981-08-28 08:03:47.020 ,2,1,0.,24.0,0.,24.0,0.,24.0,0.,24.0
1981-08-28 08:04:11.020 ,1,1,0.,24.0,0.,24.0,0.,24.0,0.,24.0
1981-08-28 08:04:35.020 ,0,1,0.,24.0,0.,24.0,1.,24.0,0.,24.0
1981-08-28 08:04:59.020 ,0,1,0.,24.0,0.,24.0,0.,24.0,0.,24.0
1981-08-28 08:05:23.020 ,1,1,0.,24.0,0.,24.0,0.,24.0,0.,24.0
1981-08-28 08:05:47.020 ,2,1,0.,24.0,0.,24.0,1.,24.0,0.,24.0
1981-08-28 08:06:11.020 ,3,1,1.,24.0,0.,24.0,1.,24.0,0.,24.0
1981-08-28 08:06:35.020 ,4,1,0.,24.0,0.,24.0,1.,24.0,0.,24.0
1981-08-28 08:06:59.020 ,5,1,0.,24.0,0.,24.0,0.,24.0,0.,24.0
1981-08-28 08:07:23.020 ,6,1,1.,24.0,0.,24.0,0.,24.0,0.,24.0
1981-08-28 08:07:47.020 ,7,1,9.,24.0,0.,24.0,0.,24.0,0.,24.0
1981-08-28 08:08:11.020 ,7,1,26.,24.0,0.,24.0,1.,24.0,0.,24.0
1981-08-28 08:08:35.020 ,7,0,34.,24.0,0.,24.0,0.,24.0,0.,24.0
1981-08-28 08:08:59.020 ,6,1,24.,24.0,0.,24.0,0.,24.0,0.,24.0
1981-08-28 08:09:23.020 ,6,0,0.,24.0,0.,24.0,1.,24.0,0.,24.0
1981-08-28 08:09:47.020 ,0,0,,0,,0,,0,,0
1981-08-28 08:10:11.020 ,0,0,,0,,0,,0,,0
1981-08-28 08:10:11.020 ,5,0,0.,24.0,0.,24.0,1.,24.0,0.,24.0
1981-08-28 08:10:35.020 ,4,1,0.,24.0,0.,24.0,0.,24.0,0.,24.0
1981-08-28 08:10:59.020 ,4,0,0.,24.0,0.,24.0,0.,24.0,0.,24.0
1981-08-28 08:11:23.020 ,3,1,1.,24.0,0.,24.0,0.,24.0,0.,24.0
1981-08-28 08:11:47.020 ,3,0,0.,24.0,0.,24.0,0.,24.0,0.,24.0
1981-08-28 08:12:11.020 ,2,1,0.,24.0,0.,24.0,1.,24.0,0.,24.0
1981-08-28 08:12:35.020 ,2,0,0.,24.0,0.,24.0,0.,24.0,0.,24.0
1981-08-28 08:12:59.020 ,1,1,0.,24.0,0.,24.0,0.,24.0,0.,24.0
1981-08-28 08:13:23.020 ,1,0,0.,24.0,0.,24.0,1.,24.0,0.,24.0
1981-08-28 08:13:47.020 ,0,1,0.,24.0,0.,24.0,0.,24.0,0.,24.0
1981-08-28 08:14:11.020 ,0,0,0.,24.0,0.,24.0,1.,24.0,0.,24.0
1981-08-28 08:14:35.020 ,0,1,0.,24.0,0.,24.0,0.,24.0,0.,24.0
1981-08-28 08:14:59.020 ,0,0,0.,24.0,0.,24.0,1.,24.0,0.,24.0
1981-08-28 08:15:23.020 ,1,1,0.,24.0,0.,24.0,0.,24.0,0.,24.0
1981-08-28 08:15:47.020 ,1,0,0.,24.0,0.,24.0,0.,24.0,0.,24.0
1981-08-28 08:16:11.020 ,2,1,0.,24.0,0.,24.0,1.,24.0,0.,24.0
1981-08-28 08:16:35.020 ,2,0,0.,24.0,0.,24.0,0.,24.0,0.,24.0
1981-08-28 08:16:59.020 ,3,1,0.,24.0,0.,24.0,1.,24.0,0.,24.0
1981-08-28 08:17:23.020 ,3,0,0.,24.0,0.,24.0,0.,24.0,0.,24.0
1981-08-28 08:17:47.020 ,4,1,0.,24.0,0.,24.0,0.,24.0,0.,24.0
1981-08-28 08:18:11.020 ,4,0,0.,24.0,0.,24.0,1.,24.0,0.,24.0
1981-08-28 08:18:35.020 ,5,1,0.,24.0,0.,24.0,1.,24.0,0.,24.0
1981-08-28 08:18:59.020 ,5,0,0.,24.0,0.,24.0,0.,24.0,0.,24.0
1981-08-28 08:19:23.020 ,6,1,0.,24.0,0.,24.0,0.,24.0,0.,24.0
1981-08-28 08:19:47.020 ,6,0,0.,24.0,0.,24.0,0.,24.0,0.,24.0
1981-08-28 08:20:11.020 ,7,1,10.,24.0,0.,24.0,0.,24.0,0.,24.0
1981-08-28 08:20:35.020 ,7,0,31.,24.0,0.,24.0,0.,24.0,0.,24.0
1981-08-28 08:20:59.020 ,7,1,28.,24.0,0.,24.0,0.,24.0,0.,24.0
1981-08-28 08:21:23.020 ,6,1,26.,24.0,0.,24.0,0.,24.0,0.,24.0
1981-08-28 08:21:47.020 ,5,1,0.,24.0,0.,24.0,1.,24.0,0.,24.0
1981-08-28 08:22:11.020 ,4,1,0.,24.0,0.,24.0,0.,24.0,0.,24.0
1981-08-28 08:22:35.020 ,3,1,0.,24.0,0.,24.0,0.,24.0,0.,24.0
1981-08-28 08:22:59.020 ,2,1,0.,24.0,0.,24.0,1.,24.0,0.,24.0
1981-08-28 08:23:23.020 ,1,1,0.,24.0,0.,24.0,0.,24.0,0.,24.0
1981-08-28 08:23:47.020 ,0,1,0.,24.0,0.,24.0,0.,24.0,0.,24.0
1981-08-28 08:24:11.020 ,0,1,0.,24.0,0.,24.0,0.,24.0,0.,24.0
1981-08-28 08:24:35.020 ,1,1,0.,24.0,0.,24.0,0.,24.0,0.,24.0
1981-08-28 08:24:59.020 ,2,1,0.,24.0,0.,24.0,0.,24.0,0.,24.0
1981-08-28 08:25:23.020 ,3,1,0.,24.0,0.,24.0,0.,24.0,0.,24.0
1981-08-28 08:25:47.020 ,4,1,0.,24.0,1.,24.0,0.,24.0,0.,24.0
1981-08-28 08:26:11.020 ,5,1,0.,24.0,0.,24.0,1.,24.0,0.,24.0
1981-08-28 08:26:35.020 ,6,1,0.,24.0,0.,24.0,1.,24.0,0.,24.0
1981-08-28 08:26:59.020 ,7,1,4.,24.0,0.,24.0,0.,24.0,0.,24.0
1981-08-28 08:27:23.020 ,7,1,32.,24.0,0.,24.0,0.,24.0,0.,24.0
1981-08-28 08:27:47.020 ,7,0,39.,24.0,0.,24.0,0.,24.0,0.,24.0
1981-08-28 08:28:11.020 ,6,1,23.,24.0,0.,24.0,0.,24.0,0.,24.0
1981-08-28 08:28:35.020 ,6,0,0.,24.0,0.,24.0,0.,24.0,0.,24.0
1981-08-28 08:28:59.020 ,5,1,0.,24.0,0.,24.0,0.,24.0,0.,24.0
1981-08-28 08:29:23.020 ,5,0,0.,24.0,0.,24.0,0.,24.0,0.,24.0
1981-08-28 08:29:47.020 ,4,1,0.,24.0,0.,24.0,0.,24.0,0.,24.0
1981-08-28 08:30:11.020 ,4,0,0.,24.0,0.,24.0,2.,24.0,0.,24.0
1981-08-28 08:30:35.020 ,3,1,0.,24.0,0.,24.0,0.,24.0,0.,24.0
1981-08-28 08:30:59.020 ,3,0,0.,24.0,0.,24.0,0.,24.0,0.,24.0
1981-08-28 08:31:23.020 ,2,1,0.,24.0,0.,24.0,0.,24.0,0.,24.0
1981-08-28 08:31:47.020 ,2,0,0.,24.0,0.,24.0,0.,24.0,0.,24.0
1981-08-28 08:32:11.020 ,1,1,0.,24.0,0.,24.0,0.,24.0,0.,24.0
1981-08-28 08:32:35.020 ,1,0,0.,24.0,0.,24.0,0.,24.0,0.,24.0
1981-08-28 08:32:59.020 ,0,1,0.,24.0,0.,24.0,1.,24.0,0.,24.0